When you browse on this site, cookies collect data to enhance your experience and personalize the content and advertising you see.
Visit our Privacy Policy to learn more. By continuing to use the site, you agree to this use of cookies and data.
  • In Portugal
  • List of Countries
  • For 7 days
  • Water Temperature
  • Satellite Maps
  • Weather Map
  • Weather Widgets
  • user-avatar
    Login

    Hourly Weather Charbinowice

    Today, 18 June, Tuesday

    Time Temperature Precipitation Wind Pressure Humidity
    00:00 +16°C° 0 mm 1 mps 746 mmHg 83%
    01:00 +16°C° 0 mm 1 mps 746 mmHg 85%
    02:00 +15°C° 0 mm 1 mps 746 mmHg 87%
    03:00 +15°C° 0 mm 2 mps 746 mmHg 90%
    04:00 +15°C° 0 mm 2 mps 746 mmHg 93%
    05:00 +16°C° 0 mm 2 mps 746 mmHg 88%
    06:00 +18°C° 0 mm 3 mps 746 mmHg 84%
    07:00 +19°C° 0 mm 3 mps 746 mmHg 80%
    08:00 +20°C° 0 mm 3 mps 746 mmHg 76%
    09:00 +22°C° 0 mm 3 mps 746 mmHg 73%
    10:00 +23°C° 0 mm 4 mps 746 mmHg 69%
    11:00 +23°C° 0 mm 4 mps 746 mmHg 68%
    12:00 +25°C° 0 mm 4 mps 745 mmHg 66%
    13:00 +25°C° 0 mm 4 mps 745 mmHg 65%
    14:00 +25°C° 0 mm 4 mps 745 mmHg 66%
    15:00 +25°C° 0 mm 4 mps 744 mmHg 68%
    16:00 +25°C° 0 mm 4 mps 744 mmHg 69%
    17:00 +24°C° 0 mm 3 mps 744 mmHg 74%
    18:00 +22°C° 0 mm 3 mps 744 mmHg 78%
    19:00 +22°C° 0 mm 3 mps 743 mmHg 83%
    20:00 +21°C° 0 mm 3 mps 743 mmHg 85%
    21:00 +20°C° 0 mm 3 mps 743 mmHg 87%
    22:00 +20°C° 0 mm 3 mps 743 mmHg 89%
    23:00 +19°C° 0 mm 3 mps 743 mmHg 91%

    Tomorrow, 19 June, Wednesday

    Time Temperature Precipitation Wind Pressure Humidity
    00:00 +18°C° 0 mm 3 mps 743 mmHg 94%
    01:00 +18°C° 0 mm 3 mps 743 mmHg 96%
    02:00 +17°C° 0.1 mm 3 mps 743 mmHg 97%
    03:00 +17°C° 0.1 mm 2 mps 742 mmHg 97%
    04:00 +17°C° 0.1 mm 2 mps 742 mmHg 97%
    05:00 +18°C° 0 mm 2 mps 742 mmHg 94%
    06:00 +19°C° 0 mm 2 mps 742 mmHg 91%
    07:00 +22°C° 0 mm 1 mps 742 mmHg 88%
    08:00 +23°C° 0 mm 1 mps 742 mmHg 82%
    09:00 +25°C° 0 mm 1 mps 742 mmHg 76%
    10:00 +26°C° 0 mm 1 mps 742 mmHg 70%
    11:00 +27°C° 0 mm 1 mps 741 mmHg 65%
    12:00 +28°C° 0 mm 1 mps 741 mmHg 60%
    13:00 +30°C° 0 mm 1 mps 741 mmHg 55%
    14:00 +30°C° 0.1 mm 1 mps 740 mmHg 56%
    15:00 +29°C° 0.1 mm 1 mps 740 mmHg 56%
    16:00 +29°C° 0.1 mm 1 mps 740 mmHg 56%
    17:00 +27°C° 2 mm 1 mps 740 mmHg 67%
    18:00 +24°C° 2 mm 1 mps 740 mmHg 78%
    19:00 +22°C° 2 mm 1 mps 740 mmHg 89%
    20:00 +22°C° 0.2 mm 1 mps 740 mmHg 89%
    21:00 +20°C° 0.2 mm 2 mps 740 mmHg 90%
    22:00 +20°C° 0.2 mm 2 mps 740 mmHg 91%
    23:00 +19°C° 0 mm 2 mps 740 mmHg 91%

    Day after tomorrow, 20 June, Thursday

    Time Temperature Precipitation Wind Pressure Humidity
    00:00 +19°C° 0 mm 2 mps 740 mmHg 91%
    01:00 +18°C° 0 mm 2 mps 740 mmHg 91%
    02:00 +19°C° 0 mm 1 mps 740 mmHg 91%
    03:00 +19°C° 0 mm 1 mps 740 mmHg 90%
    04:00 +19°C° 0 mm 1 mps 740 mmHg 89%
    05:00 +20°C° 0 mm 1 mps 740 mmHg 86%
    06:00 +22°C° 0 mm 1 mps 740 mmHg 82%
    07:00 +23°C° 0 mm 1 mps 740 mmHg 78%
    08:00 +24°C° 0 mm 1 mps 740 mmHg 76%
    09:00 +25°C° 0 mm 1 mps 740 mmHg 73%
    10:00 +25°C° 0 mm 1 mps 741 mmHg 71%
    11:00 +27°C° 0 mm 1 mps 740 mmHg 66%
    12:00 +28°C° 0 mm 1 mps 740 mmHg 61%
    13:00 +29°C° 0 mm 1 mps 740 mmHg 56%
    14:00 +29°C° 0.1 mm 1 mps 740 mmHg 57%
    15:00 +29°C° 0.1 mm 1 mps 740 mmHg 58%
    16:00 +29°C° 0.1 mm 1 mps 740 mmHg 59%
    17:00 +28°C° 0 mm 1 mps 740 mmHg 64%
    18:00 +26°C° 0 mm 1 mps 740 mmHg 70%
    19:00 +25°C° 0 mm 2 mps 740 mmHg 75%
    20:00 +24°C° 0 mm 1 mps 740 mmHg 78%
    21:00 +23°C° 0 mm 1 mps 740 mmHg 81%
    22:00 +20°C° 0 mm 0 mps 740 mmHg 84%
    23:00 +19°C° 0 mm 0 mps 740 mmHg 85%

    21 June, Friday

    Time Temperature Precipitation Wind Pressure Humidity
    00:00 +19°C° 0 mm 0 mps 740 mmHg 86%
    01:00 +18°C° 0 mm 0 mps 740 mmHg 88%
    02:00 +20°C° 0 mm 1 mps 740 mmHg 88%
    03:00 +20°C° 0 mm 1 mps 740 mmHg 89%
    04:00 +20°C° 0 mm 1 mps 740 mmHg 89%
    05:00 +21°C° 0 mm 1 mps 740 mmHg 84%
    06:00 +23°C° 0 mm 1 mps 740 mmHg 79%
    07:00 +24°C° 0 mm 1 mps 740 mmHg 74%
    08:00 +26°C° 0 mm 1 mps 740 mmHg 70%
    09:00 +27°C° 0 mm 1 mps 740 mmHg 65%
    10:00 +29°C° 0 mm 1 mps 740 mmHg 61%
    11:00 +29°C° 0.3 mm 1 mps 740 mmHg 59%
    12:00 +30°C° 0.3 mm 1 mps 740 mmHg 57%
    13:00 +30°C° 0.3 mm 2 mps 740 mmHg 55%
    14:00 +29°C° 0.5 mm 2 mps 740 mmHg 60%
    15:00 +29°C° 0.5 mm 2 mps 740 mmHg 64%
    16:00 +28°C° 0.5 mm 3 mps 740 mmHg 69%
    17:00 +27°C° 0.4 mm 2 mps 740 mmHg 74%
    18:00 +25°C° 0.4 mm 2 mps 740 mmHg 79%
    19:00 +24°C° 0.4 mm 2 mps 740 mmHg 83%
    20:00 +22°C° 0.9 mm 3 mps 741 mmHg 87%
    21:00 +21°C° 0.9 mm 3 mps 741 mmHg 91%
    22:00 +20°C° 0.9 mm 4 mps 741 mmHg 94%
    23:00 +19°C° 0.2 mm 4 mps 741 mmHg 95%

    22 June, Saturday

    Time Temperature Precipitation Wind Pressure Humidity
    00:00 +19°C° 0.2 mm 4 mps 742 mmHg 95%
    01:00 +18°C° 0.2 mm 3 mps 742 mmHg 96%
    02:00 +19°C° 0 mm 3 mps 742 mmHg 95%
    03:00 +19°C° 0 mm 3 mps 742 mmHg 95%
    04:00 +19°C° 0 mm 3 mps 742 mmHg 94%
    05:00 +19°C° 0 mm 3 mps 743 mmHg 92%
    06:00 +19°C° 0 mm 3 mps 743 mmHg 91%
    07:00 +19°C° 0 mm 3 mps 744 mmHg 89%
    08:00 +20°C° 0.1 mm 3 mps 744 mmHg 87%
    09:00 +20°C° 0.1 mm 3 mps 744 mmHg 85%
    10:00 +20°C° 0.1 mm 3 mps 744 mmHg 83%
    11:00 +21°C° 0.1 mm 4 mps 745 mmHg 80%
    12:00 +22°C° 0.1 mm 4 mps 745 mmHg 76%
    13:00 +23°C° 0.1 mm 4 mps 745 mmHg 72%
    14:00 +24°C° 0.5 mm 3 mps 744 mmHg 75%
    15:00 +22°C° 0.5 mm 3 mps 744 mmHg 77%
    16:00 +22°C° 0.5 mm 3 mps 744 mmHg 79%
    17:00 +21°C° 0.6 mm 2 mps 744 mmHg 83%
    18:00 +21°C° 0.6 mm 1 mps 744 mmHg 87%
    19:00 +21°C° 0.6 mm 1 mps 744 mmHg 90%
    20:00 +20°C° 0.3 mm 1 mps 744 mmHg 91%
    21:00 +20°C° 0.3 mm 1 mps 745 mmHg 92%
    22:00 +20°C° 0.3 mm 1 mps 745 mmHg 92%
    23:00 +19°C° 0 mm 1 mps 745 mmHg 93%

    23 June, Sunday

    Time Temperature Precipitation Wind Pressure Humidity
    00:00 +19°C° 0 mm 1 mps 745 mmHg 93%
    01:00 +18°C° 0 mm 2 mps 744 mmHg 94%
    02:00 +17°C° 0 mm 2 mps 744 mmHg 95%
    03:00 +17°C° 0 mm 2 mps 744 mmHg 95%
    04:00 +17°C° 0 mm 2 mps 744 mmHg 96%
    05:00 +17°C° 0.3 mm 2 mps 745 mmHg 95%
    06:00 +17°C° 0.3 mm 2 mps 745 mmHg 94%
    07:00 +18°C° 0.3 mm 3 mps 745 mmHg 94%
    08:00 +19°C° 0 mm 2 mps 745 mmHg 90%
    09:00 +19°C° 0 mm 2 mps 745 mmHg 87%
    10:00 +20°C° 0 mm 2 mps 745 mmHg 83%
    11:00 +23°C° 0 mm 2 mps 745 mmHg 77%
    12:00 +24°C° 0 mm 2 mps 745 mmHg 72%
    13:00 +25°C° 0 mm 3 mps 744 mmHg 66%
    14:00 +25°C° 0 mm 3 mps 744 mmHg 65%
    15:00 +25°C° 0 mm 3 mps 744 mmHg 65%
    16:00 +25°C° 0 mm 3 mps 744 mmHg 65%
    17:00 +24°C° 0 mm 2 mps 744 mmHg 70%
    18:00 +24°C° 0 mm 2 mps 744 mmHg 74%
    19:00 +23°C° 0 mm 2 mps 744 mmHg 79%
    20:00 +21°C° 0 mm 1 mps 744 mmHg 82%
    21:00 +20°C° 0 mm 1 mps 745 mmHg 85%
    22:00 +19°C° 0 mm 1 mps 745 mmHg 87%
    23:00 +19°C° 0 mm 1 mps 745 mmHg 89%
    Show more